DW9924 Weather Reports


Display with metric or nautical units.
time (UTC)temp
F
wind
direction
speed
MPH
gust
MPH
rain 1hr
in
rain 24hr
in
rain mn
in
humidity
%
barometer
mb
20260503051404 59 25 1.0 2.0 0.00 0.00 0.00 59 1020.6
20260503050904 59 17 2.0 3.0 0.00 0.00 0.00 55 1020.5
20260503050405 59 26 2.0 3.0 0.00 0.00 0.00 59 1020.5
20260503044906 58 34 2.0 3.0 0.00 0.00 0.00 53 1020.4
20260503044404 58 35 2.0 3.0 0.00 0.00 0.00 52 1020.4
20260503043904 58 24 1.0 3.0 0.00 0.00 0.00 50 1020.5
20260503041905 58 47 2.0 3.0 0.00 0.00 0.00 50 1020.4
20260503041404 58 54 2.0 3.0 0.00 0.00 0.00 49 1020.5
20260503040904 58 64 1.0 3.0 0.00 0.00 0.00 46 1020.4
20260503040404 58 36 2.0 3.0 0.00 0.00 0.00 46 1020.3
20260503034904 58 27 2.0 3.0 0.00 0.00 0.00 45 1020.4
20260503034404 58 30 2.0 3.0 0.00 0.00 0.00 45 1020.4
20260503033904 58 31 2.0 3.0 0.00 0.00 0.00 45 1020.4
20260503033406 58 49 2.0 3.0 0.00 0.00 0.00 45 1020.4
20260503031904 58 49 2.0 3.0 0.00 0.00 0.00 46 1020.5
20260503030904 58 27 2.0 3.0 0.00 0.00 0.00 46 1020.5
20260503030404 58 35 2.0 3.0 0.00 0.00 0.00 47 1020.5
20260503024904 58 28 2.0 3.0 0.00 0.00 0.00 47 1020.6
20260503024403 59 26 2.0 3.0 0.00 0.00 0.00 46 1020.7
20260503023904 59 39 2.0 3.0 0.00 0.00 0.00 46 1020.7
20260503023405 59 32 2.0 3.0 0.00 0.00 0.00 45 1020.8
20260503021904 58 40 2.0 3.0 0.00 0.00 0.00 47 1020.9
20260503021404 58 39 2.0 3.0 0.00 0.00 0.00 48 1020.8
20260503020904 58 37 2.0 3.0 0.00 0.00 0.00 48 1020.7
20260503020405 58 33 2.0 3.0 0.00 0.00 0.00 48 1020.8
20260503014903 58 33 2.0 3.0 0.00 0.00 0.00 48 1020.8
20260503014404 58 42 2.0 3.0 0.00 0.00 0.00 49 1020.8
20260503011904 58 38 2.0 3.0 0.00 0.00 0.00 48 1020.9
20260503011405 58 43 2.0 3.0 0.00 0.00 0.00 48 1021.0
20260503004905 58 35 2.0 3.0 0.00 0.00 0.00 49 1021.0
20260503003904 58 36 2.0 3.0 0.00 0.00 0.00 50 1021.2
20260503003410 58 38 2.0 3.0 0.00 0.00 0.00 50 1021.2
20260503001906 58 33 2.0 3.0 0.00 0.00 0.00 50 1021.1
20260503001406 58 38 2.0 3.0 0.00 0.00 0.00 50 1021.2
20260503000906 58 34 2.0 3.0 0.00 0.00 0.00 49 1021.3
20260503000408 58 40 2.0 3.0 0.00 0.00 0.00 49 1021.3
20260502234906 58 24 2.0 3.0 0.00 0.00 0.00 50 1021.3
20260502234406 58 47 2.0 3.0 0.00 0.00 0.00 50 1021.4
20260502233906 59 41 2.0 3.0 0.00 0.00 0.00 50 1021.5
20260502233406 59 38 2.0 3.0 0.00 0.00 0.00 50 1021.5
20260502231906 59 30 2.0 3.0 0.00 0.00 0.00 49 1021.7
20260502230906 59 22 2.0 3.0 0.00 0.00 0.00 50 1021.7
20260502230406 59 33 2.0 3.0 0.00 0.00 0.00 49 1021.7
20260502224906 59 44 2.0 3.0 0.00 0.00 0.00 47 1021.8
20260502224407 59 54 2.0 3.0 0.00 0.00 0.00 48 1021.7
20260502223906 59 37 2.0 3.0 0.00 0.00 0.00 48 1021.7
20260502223407 59 33 2.0 3.0 0.00 0.00 0.00 49 1021.8
20260502221907 59 45 1.0 2.0 0.00 0.00 0.00 49 1022.1
20260502221405 59 38 1.0 3.0 0.00 0.00 0.00 50 1022.2
20260502220906 59 28 2.0 3.0 0.00 0.00 0.00 50 1022.3
20260502220406 59 31 2.0 3.0 0.00 0.00 0.00 51 1022.3
20260502214906 59 32 2.0 3.0 0.00 0.00 0.00 54 1022.3
20260502214405 59 44 2.0 3.0 0.00 0.00 0.00 54 1022.3
20260502213906 59 29 1.0 3.0 0.00 0.00 0.00 54 1022.4
20260502213407 59 36 2.0 3.0 0.00 0.00 0.00 53 1022.3
20260502211906 60 25 2.0 3.0 0.00 0.00 0.00 51 1022.3
20260502211407 60 30 2.0 3.0 0.00 0.00 0.00 49 1022.4
20260502210911 60 27 1.0 2.0 0.00 0.00 0.00 49 1022.4
20260502210409 60 27 1.0 3.0 0.00 0.00 0.00 48 1022.3
20260502204906 61 43 2.0 3.0 0.00 0.00 0.00 46 1022.2
20260502204408 61 49 1.0 3.0 0.00 0.00 0.00 47 1022.4
20260502203905 61 43 1.0 3.0 0.00 0.00 0.00 47 1022.3
20260502203406 60 35 2.0 3.0 0.00 0.00 0.00 47 1022.3
20260502201906 60 31 2.0 3.0 0.00 0.00 0.00 50 1022.6
20260502201421 60 29 2.0 3.0 0.00 0.00 0.00 50 1022.6
20260502200908 60 26 2.0 3.0 0.00 0.00 0.00 50 1022.5
20260502200406 60 19 2.0 3.0 0.00 0.00 0.00 50 1022.4
20260502193905 61 20 2.0 3.0 0.00 0.00 0.00 51 1022.1
20260502193405 61 25 1.0 3.0 0.00 0.00 0.00 52 1022.2
20260502191907 61 34 1.0 3.0 0.00 0.00 0.00 50 1022.1
20260502191406 61 25 1.0 3.0 0.00 0.00 0.00 50 1022.0
20260502190905 61 29 2.0 3.0 0.00 0.00 0.00 50 1022.0
20260502184905 62 34 1.0 3.0 0.00 0.00 0.00 47 1022.0
20260502184406 63 25 1.0 3.0 0.00 0.00 0.00 48 1022.0
20260502183906 63 22 1.0 2.0 0.00 0.00 0.00 49 1022.0
20260502183405 63 28 1.0 3.0 0.00 0.00 0.00 49 1022.1
20260502180905 64 5 0.0 0.0 0.00 0.00 0.00 57 1022.1
20260502180405 64 5 0.0 1.0 0.00 0.00 0.00 56 1022.1
20260502170405 66 202 1.0 3.0 0.00 0.00 0.00 57 1022.2
20260502163905 67 263 1.0 3.0 0.00 0.00 0.00 55 1022.4
20260502161905 67 235 1.0 3.0 0.00 0.00 0.00 55 1022.5
20260502161405 67 229 2.0 6.0 0.00 0.00 0.00 55 1022.6
20260502160905 68 211 2.0 3.0 0.00 0.00 0.00 53 1022.6
20260502160405 68 254 1.0 6.0 0.00 0.00 0.00 54 1022.6
20260502151905 69 261 1.0 3.0 0.00 0.00 0.00 51 1023.0
20260502151405 69 233 2.0 5.0 0.00 0.00 0.00 51 1023.1
20260502150905 69 216 2.0 7.0 0.00 0.00 0.00 49 1023.1
20260502150405 69 239 1.0 7.0 0.00 0.00 0.00 49 1023.2
20260502130404 68 235 3.0 6.0 0.00 0.00 0.00 46 1024.4
20260502123408 69 252 2.0 3.0 0.00 0.00 0.00 45 1024.6
20260502121905 69 261 1.0 3.0 0.00 0.00 0.00 44 1024.5
20260502121406 69 251 2.0 3.0 0.00 0.00 0.00 44 1024.6
20260502120908 69 232 2.0 5.0 0.00 0.00 0.00 43 1024.8
20260502120409 69 262 2.0 5.0 0.00 0.00 0.00 44 1024.8
20260502114905 68 229 2.0 3.0 0.00 0.00 0.00 42 1024.8
20260502113904 69 229 2.0 5.0 0.00 0.00 0.00 43 1025.1
20260502113404 68 222 3.0 5.0 0.00 0.00 0.00 42 1025.1
20260502111905 69 216 2.0 3.0 0.00 0.00 0.00 40 1025.3
20260502111404 69 235 1.0 5.0 0.00 0.00 0.00 41 1025.3
20260502110905 68 214 2.0 3.0 0.00 0.00 0.00 39 1025.4
20260502110405 68 244 2.0 6.0 0.00 0.00 0.00 39 1025.4
20260502104905 69 257 2.0 3.0 0.00 0.00 0.00 40 1025.5
20260502104405 68 215 2.0 3.0 0.00 0.00 0.00 38 1025.5
20260502103904 68 231 2.0 5.0 0.00 0.00 0.00 38 1025.6
20260502103405 68 222 2.0 3.0 0.00 0.00 0.00 40 1025.7
20260502101916 67 264 2.0 3.0 0.00 0.00 0.00 39 1025.9
20260502101404 68 238 3.0 5.0 0.00 0.00 0.00 38 1025.9
20260502100907 68 222 2.0 3.0 0.00 0.00 0.00 39 1026.1
20260502100404 68 211 1.0 3.0 0.00 0.00 0.00 38 1026.2
20260502091405 68 248 1.0 2.0 0.00 0.00 0.00 39 1026.7
20260502071405 66 228 1.0 3.0 0.00 0.00 0.00 48 1026.5
20260502070904 66 233 1.0 2.0 0.00 0.00 0.00 48 1026.6
20260502070411 66 188 0.0 2.0 0.00 0.00 0.00 48 1026.6
20260502064904 64 308 1.0 3.0 0.00 0.00 0.00 50 1026.5
20260502064405 63 310 1.0 2.0 0.00 0.00 0.00 52 1026.6
20260502063904 63 311 1.0 2.0 0.00 0.00 0.00 53 1026.5
20260502063404 62 321 1.0 3.0 0.00 0.00 0.00 54 1026.6
20260502061905 61 313 1.0 2.0 0.00 0.00 0.00 57 1026.6
20260502061420 60 15 1.0 3.0 0.00 0.00 0.00 59 1026.6
20260502060904 60 23 1.0 2.0 0.00 0.00 0.00 59 1026.5
20260502060404 60 24 2.0 3.0 0.00 0.00 0.00 59 1026.5
20260502054903 59 20 1.0 2.0 0.00 0.00 0.00 57 1026.6
20260502054404 59 22 2.0 3.0 0.00 0.00 0.00 57 1026.7
20260502053904 59 31 2.0 3.0 0.00 0.00 0.00 56 1026.6
20260502051919 59 26 2.0 3.0 0.00 0.00 0.00 53 1026.5